Location: Eastview
(35.0756°N, 88.5453°W)
Time: 08:02:39
(UTC+00:00)

Cosmos 2034 Rocket - Pass Details

Date: 22 November 2019
Orbit: 959 x 1000 km, 82.9° (Epoch: 13 December)

Event Time Altitude Azimuth Distance (km) Brightness Sun altitude
Rises 23:28:58 0° 355° (N) 3,724 6.9 -9.2°
Reaches altitude 10° 23:31:31 10° 357° (N) 2,773 6.2 -9.7°
Maximum altitude 23:37:54 77° 84° (E) 1,027 4.0 -11.0°
Drops below altitude 10° 23:44:14 10° 170° (S) 2,755 6.4 -12.2°
Sets 23:46:45 0° 171° (S) 3,698 7.1 -12.7°
